sat.trackr.live / text

‹ back to catalog

ONEWEB-0238

NORAD 48784 · 2021-045T

PAYLOAD ACTIVE UNKNOWN

§ Identity

Operator
Country
UK
Launch date
2021-05-28
Launch site
VOSTO
Launch vehicle
Mass (kg)
RCS (m²)

Purposes: comms

External: N2YO · Heavens-Above · Gunter

§ Orbital elements

Epoch: 2026-05-25T00:58:01.072416Z

Period
109.46 min
Inclination
87.9004°
Eccentricity
0.0001898
Mean motion
13.15550240 rev/d
Perigee alt
1,200.3 km
Apogee alt
1,203.2 km
Semi-major
7,579.9 km
B*
-1.7014e-4
RAAN
263.7825°
Arg perigee
113.4396°
Mean anomaly
246.6934°
Rev number
24,133

§ Raw data

ONEWEB-02381 48784U 21045T   26145.04029019 -.00000051  00000+0 -17014-3 0  99992 48784  87.9004 263.7825 0001898 113.4396 246.6934 13.15550240241330

JSON: /api/v1/satellites/48784 · /tle

For live sub-satellite position, see the globe view (requires WebGL).

§ Visibility from observer

Set your observer location to see the next 7 days of passes ≥ 10°. The values pass through the URL so the page stays shareable.

No JS? Fill the form by hand. The geolocation button needs JavaScript.